This demonstration page uses our WeatherBlox Daily Observations layout. Learn more.

Hourly Observations for October 4, 2019

Temp ( °F °C ) Dew Point ( °F °C ) Humidity (%) Winds ( mph kmh ) Pressure ( in mb ) Visibility ( mi km ) Precip ( " mm )
12:15 am 00:15 Cloudy 70 21 70 21 100 100 Calm 29.94 1014 7 11.265408 0 0
12:35 am 00:35 Cloudy 70 21 70 21 100 100 Calm 29.94 1014 7 11.265408 0 0
12:55 am 00:55 Cloudy 70 21 70 21 100 100 Calm 29.94 1014 7 11.265408 0 0
1:15 am 01:15 Cloudy 70 21 68 20 94 94 N 6 9 29.97 1015 10 16.09344 0 0
1:55 am 01:55 Cloudy 70 21 68 20 94 94 Calm 29.97 1015 7 11.265408 0 0
2:15 am 02:15 Cloudy 70 21 68 20 94 94 Calm 29.97 1015 10 16.09344 0 0
2:35 am 02:35 Cloudy 70 21 70 21 100 100 N 5 7 29.97 1015 10 16.09344 0 0
2:55 am 02:55 Cloudy 70 21 68 20 94 94 NNE 3 6 29.97 1015 10 16.09344 0 0
3:15 am 03:15 Cloudy 70 21 68 20 94 94 Calm 29.97 1015 10 16.09344 0 0
3:35 am 03:35 Mostly Cloudy 68 20 68 20 100 100 N 5 7 29.97 1015 7 11.265408 0 0
3:55 am 03:55 Partly Cloudy 68 20 68 20 100 100 N 6 9 29.97 1015 7 11.265408 0 0
4:15 am 04:15 Partly Cloudy 68 20 68 20 100 100 N 5 7 30 1016 7 11.265408 0 0
4:35 am 04:35 Mostly Cloudy 68 20 66 19 94 94 N 8 13 30 1016 7 11.265408 0 0
4:55 am 04:55 Partly Cloudy 66 19 64 18 94 94 N 9 15 30 1016 10 16.09344 0 0
5:15 am 05:15 Clear 66 19 63 17 88 88 N 9 15 30.03 1017 10 16.09344 0 0
5:35 am 05:35 Clear 66 19 61 16 83 83 N 10 17 30.03 1017 10 16.09344 0 0
5:55 am 05:55 Clear 66 19 61 16 83 83 N 12 19 30.03 1017 10 16.09344 0 0
6:15 am 06:15 Clear 64 18 61 16 88 88 N 12 19 30.03 1017 10 16.09344 0 0
6:35 am 06:35 Clear 64 18 59 15 83 83 N 10 17 30.06 1018 10 16.09344 0 0
7:15 am 07:15 Partly Cloudy 64 18 59 15 83 83 NNE 6 9 30.06 1018 10 16.09344 0 0
7:35 am 07:35 Sunny 64 18 59 15 83 83 NNE 6 9 30.06 1018 10 16.09344 0 0
7:55 am 07:55 Sunny 64 18 57 14 78 78 NNE 7 11 30.09 1019 10 16.09344 0 0
8:15 am 08:15 Sunny 64 18 55 13 73 73 N 9 15 30.09 1019 10 16.09344 0 0
8:35 am 08:35 Sunny 64 18 55 13 73 73 N 9 15 30.09 1019 10 16.09344 0 0
8:55 am 08:55 Sunny 66 19 55 13 68 68 NNE 12 19 30.09 1019 10 16.09344 0 0
9:15 am 09:15 Sunny 68 20 55 13 64 64 N 9 15 30.12 1020 10 16.09344 0 0
9:35 am 09:35 Sunny 68 20 55 13 64 64 N 12 19 30.12 1020 10 16.09344 0 0
9:55 am 09:55 Partly Cloudy 70 21 55 13 60 60 NNE 10 17 30.12 1020 10 16.09344 0 0
10:15 am 10:15 Partly Cloudy 70 21 55 13 60 60 N 12 19 30.12 1020 10 16.09344 0 0
10:35 am 10:35 Mostly Cloudy 70 21 54 12 57 57 N 16 26 30.12 1020 10 16.09344 0 0
11:15 am 11:15 Cloudy 72 22 54 12 53 53 N 14 22 30.15 1021 10 16.09344 0 0
11:35 am 11:35 Cloudy 72 22 54 12 53 53 NNW 14 22 30.15 1021 10 16.09344 0 0
11:55 am 11:55 Partly Cloudy 72 22 50 10 47 47 N 13 20 30.15 1021 10 16.09344 0 0
12:15 pm 12:15 Sunny 73 23 50 10 44 44 N 17 28 30.15 1021 10 16.09344 0 0
12:35 pm 12:35 Sunny 73 23 50 10 44 44 N 16 26 30.15 1021 10 16.09344 0 0
12:55 pm 12:55 Sunny 73 23 48 9 41 41 N 14 22 30.15 1021 10 16.09344 0 0
1:15 pm 13:15 Sunny 73 23 50 10 44 44 NNW 14 22 30.15 1021 10 16.09344 0 0
1:35 pm 13:35 Sunny 73 23 50 10 44 44 NNW 18 30 30.15 1021 10 16.09344 0 0
1:55 pm 13:55 Mostly Cloudy 73 23 50 10 44 44 N 14 22 30.15 1021 10 16.09344 0 0
2:15 pm 14:15 Partly Cloudy 73 23 50 10 44 44 NNE 8 13 30.15 1021 10 16.09344 0 0
2:35 pm 14:35 Partly Cloudy 73 23 48 9 41 41 N 10 17 30.15 1021 10 16.09344 0 0
2:55 pm 14:55 Partly Cloudy 73 23 48 9 41 41 N 14 22 30.15 1021 10 16.09344 0 0
3:15 pm 15:15 Partly Cloudy 75 24 46 8 36 36 N 12 19 30.15 1021 10 16.09344 0 0
3:35 pm 15:35 Partly Cloudy 75 24 48 9 39 39 N 14 22 30.15 1021 10 16.09344 0 0
3:55 pm 15:55 Sunny 73 23 46 8 38 38 N 9 15 30.15 1021 10 16.09344 0 0
4:15 pm 16:15 Sunny 75 24 48 9 39 39 N 14 22 30.15 1021 10 16.09344 0 0
4:55 pm 16:55 Sunny 73 23 46 8 38 38 NNE 15 24 30.15 1021 10 16.09344 0 0
5:15 pm 17:15 Sunny 72 22 48 9 44 44 NNE 13 20 30.18 1022 10 16.09344 0 0
5:35 pm 17:35 Sunny 72 22 46 8 41 41 N 12 19 30.18 1022 10 16.09344 0 0
5:55 pm 17:55 Sunny 72 22 46 8 41 41 N 8 13 30.18 1022 10 16.09344 0 0
6:15 pm 18:15 Sunny 70 21 48 9 46 46 NNE 7 11 30.18 1022 10 16.09344 0 0
6:35 pm 18:35 Sunny 70 21 48 9 46 46 N 9 15 30.18 1022 10 16.09344 0 0
6:55 pm 18:55 Clear 68 20 46 8 46 46 N 9 15 30.18 1022 10 16.09344 0 0
7:15 pm 19:15 Clear 68 20 48 9 49 49 NE 10 17 30.21 1023 10 16.09344 0 0
7:35 pm 19:35 Clear 64 18 50 10 60 60 NE 20 31 30.21 1023 10 16.09344 0 0
7:55 pm 19:55 Clear 63 17 48 9 59 59 NNE 16 26 30.24 1024 10 16.09344 0 0
8:15 pm 20:15 Clear 61 16 46 8 59 59 NE 15 24 30.24 1024 10 16.09344 0 0
8:35 pm 20:35 Clear 61 16 46 8 59 59 NE 10 17 30.27 1025 10 16.09344 0 0
8:55 pm 20:55 Clear 59 15 45 7 59 59 NE 9 15 30.27 1025 10 16.09344 0 0
9:15 pm 21:15 Clear 57 14 45 7 63 63 NE 15 24 30.3 1026 10 16.09344 0 0
9:35 pm 21:35 Clear 55 13 45 7 67 67 NE 12 19 30.3 1026 10 16.09344 0 0
9:55 pm 21:55 Clear 55 13 45 7 67 67 NE 10 17 30.3 1026 10 16.09344 0 0
10:15 pm 22:15 Clear 54 12 43 6 67 67 NE 12 19 30.36 1028 10 16.09344 0 0
10:35 pm 22:35 Clear 54 12 43 6 67 67 NE 10 17 30.36 1028 10 16.09344 0 0
10:55 pm 22:55 Clear 54 12 43 6 67 67 NE 12 19 30.39 1029 10 16.09344 0 0
11:15 pm 23:15 Clear 54 12 41 5 63 63 NE 10 17 30.39 1029 10 16.09344 0 0
11:35 pm 23:35 Clear 52 11 41 5 67 67 NE 9 15 30.39 1029 10 16.09344 0 0
11:55 pm 23:55 Clear 52 11 41 5 67 67 NE 9 15 30.39 1029 10 16.09344 0 0

Powered by AerisWeather